This is the latest recevied weather packets stored in our database for station/object K7CTM. If no packets are shown the sender has not sent any weather packets the latest 10 day(s).
| Time | Temp. | Humidity | Pressure | Rain* | Wind** | Luminosity | Snow |
|---|---|---|---|---|---|---|---|
| 1778181144 | 13.89° C | 64% | 1022.8 hPa | 0 mm | - | 422 W/m² | - |
| 1778180841 | 13.89° C | 65% | 1022.8 hPa | 0 mm | - | 344 W/m² | - |
| 1778180539 | 13.89° C | 64% | 1022.8 hPa | 0 mm | - | 186 W/m² | - |
| 1778180238 | 13.89° C | 65% | 1023 hPa | 0 mm | - | 180 W/m² | - |
| 1778179934 | 13.89° C | 62% | 1023 hPa | 0 mm | - | 200 W/m² | - |
| 1778179632 | 13.89° C | 64% | 1023 hPa | 0 mm | - | 237 W/m² | - |
| 1778179329 | 13.33° C | 66% | 1022.8 hPa | 0 mm | - | 327 W/m² | - |
| 1778179020 | 13.33° C | 69% | 1022.9 hPa | 0 mm | - | 222 W/m² | - |
| 1778178717 | 13.33° C | 69% | 1023 hPa | 0 mm | - | 238 W/m² | - |
| 1778178414 | 13.33° C | 67% | 1023.1 hPa | 0 mm | - | 206 W/m² | - |
| 1778178109 | 13.89° C | 65% | 1023.3 hPa | 0 mm | - | 202 W/m² | - |
| 1778177806 | 13.89° C | 67% | 1023.2 hPa | 0 mm | - | 181 W/m² | - |
| 1778177502 | 13.89° C | 64% | 1023.6 hPa | 0 mm | - | 204 W/m² | - |
| 1778177199 | 13.89° C | 63% | 1023.3 hPa | 0 mm | - | 253 W/m² | - |
| 1778176896 | 13.33° C | 67% | 1023.2 hPa | 0 mm | - | 323 W/m² | - |
| 1778176591 | 12.78° C | 69% | 1023.6 hPa | 0 mm | - | 267 W/m² | - |
| 1778176289 | 12.78° C | 67% | 1023.2 hPa | 0 mm | - | 196 W/m² | - |
| 1778175986 | 12.78° C | 69% | 1023.3 hPa | 0 mm | - | 191 W/m² | - |
| 1778175684 | 12.78° C | 69% | 1023.3 hPa | 0 mm | - | 187 W/m² | - |
| 1778175381 | 12.22° C | 70% | 1023.1 hPa | 0 mm | - | 236 W/m² | - |
| 1778175078 | 11.67° C | 73% | 1023.1 hPa | 0 mm | - | 220 W/m² | - |
| 1778174774 | 11.67° C | 73% | 1023 hPa | 0 mm | - | 254 W/m² | - |
| 1778174472 | 11.11° C | 76% | 1023.3 hPa | 0 mm | - | 166 W/m² | - |
| 1778174166 | 11.67° C | 75% | 1023 hPa | 0 mm | - | 154 W/m² | - |
| 1778173864 | 11.67° C | 73% | 1023.3 hPa | 0 mm | - | 200 W/m² | - |
* Rain latest hour (hover to see other rain measurements)
** Current wind speed in m/s (hover to see current wind gust speed)